This is the latest recevied weather packets stored in our database for station/object KC0AFB. If no packets are shown the sender has not sent any weather packets the latest 10 day(s).
| Time | Temp. | Humidity | Pressure | Rain* | Wind** | Luminosity | Snow |
|---|---|---|---|---|---|---|---|
| 1777602935 | 5.56° C | 52% | 1020.3 hPa | 0 mm | - | 0 W/m² | - |
| 1777602630 | 5° C | 53% | 1020 hPa | 0 mm | - | 0 W/m² | - |
| 1777602325 | 5.56° C | 53% | 1020.1 hPa | 0 mm | - | 0 W/m² | - |
| 1777602021 | 5.56° C | 52% | 1019.8 hPa | 0 mm | - | 0 W/m² | - |
| 1777601716 | 5.56° C | 51% | 1019.8 hPa | 0 mm | - | 0 W/m² | - |
| 1777601412 | 5.56° C | 51% | 1020.1 hPa | 0 mm | - | 0 W/m² | - |
| 1777601109 | 6.11° C | 51% | 1019.7 hPa | 0 mm | - | 0 W/m² | - |
| 1777600806 | 6.11° C | 51% | 1019.8 hPa | 0 mm | - | 0 W/m² | - |
| 1777600501 | 6.67° C | 51% | 1019.8 hPa | 0 mm | - | 1 W/m² | - |
| 1777600197 | 6.67° C | 50% | 1020.1 hPa | 0 mm | - | 4 W/m² | - |
| 1777599893 | 6.67° C | 50% | 1019.5 hPa | 0 mm | - | 7 W/m² | - |
| 1777599589 | 6.67° C | 51% | 1019.6 hPa | 0 mm | - | 11 W/m² | - |
| 1777599287 | 6.67° C | 50% | 1019.9 hPa | 0 mm | - | 14 W/m² | - |
| 1777598982 | 7.22° C | 50% | 1019.9 hPa | 0 mm | - | 19 W/m² | - |
| 1777598680 | 7.22° C | 50% | 1020.1 hPa | 0 mm | - | 21 W/m² | - |
| 1777598375 | 7.22° C | 50% | 1019.9 hPa | 0 mm | - | 25 W/m² | - |
| 1777598074 | 7.78° C | 49% | 1019.9 hPa | 0 mm | - | 30 W/m² | - |
| 1777597773 | 7.78° C | 48% | 1019.7 hPa | 0 mm | - | 36 W/m² | - |
| 1777597469 | 8.33° C | 48% | 1019.8 hPa | 0 mm | - | 44 W/m² | - |
| 1777597165 | 8.33° C | 47% | 1019.6 hPa | 0 mm | - | 49 W/m² | - |
| 1777596861 | 8.33° C | 47% | 1019.8 hPa | 0 mm | - | 50 W/m² | - |
| 1777596556 | 8.33° C | 47% | 1019.8 hPa | 0 mm | - | 44 W/m² | - |
| 1777596254 | 8.33° C | 46% | 1019.9 hPa | 0 mm | - | 45 W/m² | - |
| 1777595951 | 8.89° C | 46% | 1019.5 hPa | 0 mm | - | 60 W/m² | - |
| 1777595645 | 8.33° C | 46% | 1019.8 hPa | 0 mm | - | 77 W/m² | - |
* Rain latest hour (hover to see other rain measurements)
** Current wind speed in m/s (hover to see current wind gust speed)